Location: Marsån
(66.4167°N, 22.2833°E)
Time: 10:41:25
(UTC+00:00)

YAOGAN 11 - Pass Details

Date: 24 February 2024
Orbit: 608 x 658 km, 98.4° (Epoch: 15 April)

Event Time Altitude Azimuth Distance (km) Brightness Sun altitude
Rises 16:23:09 0° 21° (NNE) 2,893 7.2 -6.6°
Reaches altitude 10° 16:25:21 10° 24° (NNE) 1,989 6.4 -6.8°
Maximum altitude 16:29:40 70° 109° (ESE) 667 4.0 -7.2°
Drops below altitude 10° 16:34:00 10° 193° (SSW) 2,001 6.9 -7.7°
Sets 16:36:12 0° 195° (SSW) 2,912 7.8 -7.9°
